This is the latest recevied weather packets stored in our database for station/object IZ0VWB-3. If no packets are shown the sender has not sent any weather packets the latest 10 day(s).
| Time | Temp. | Humidity | Pressure | Rain* | Wind** | Luminosity | Snow |
|---|---|---|---|---|---|---|---|
| 1777635947 | 17.22° C | 42% | 1009.7 hPa | 0 mm | - | - | - |
| 1777635348 | 17.22° C | 41% | 1009.7 hPa | 0 mm | - | - | - |
| 1777634748 | 17.22° C | 42% | 1009.8 hPa | 0 mm | - | - | - |
| 1777634149 | 16.67° C | 41% | 1009.8 hPa | 0 mm | - | - | - |
| 1777633547 | 16.67° C | 42% | 1009.8 hPa | 0 mm | - | - | - |
| 1777632948 | 16.67° C | 43% | 1009.9 hPa | 0 mm | - | - | - |
| 1777632348 | 16.11° C | 41% | 1010 hPa | 0 mm | - | - | - |
| 1777631748 | 16.67° C | 42% | 1009.9 hPa | 0 mm | - | - | - |
| 1777631148 | 16.11° C | 42% | 1009.9 hPa | 0 mm | - | - | - |
| 1777630702 | 16.11° C | 42% | 1010.1 hPa | 0 mm | - | - | - |
| 1777630101 | 15.56° C | 42% | 1010.2 hPa | 0 mm | - | - | - |
| 1777629503 | 16.11° C | 43% | 1010.2 hPa | 0 mm | - | - | - |
| 1777628902 | 16.11° C | 44% | 1010.2 hPa | 0 mm | - | - | - |
| 1777628303 | 15.56° C | 45% | 1010.3 hPa | 0 mm | - | - | - |
| 1777627701 | 15.56° C | 44% | 1010.3 hPa | 0 mm | - | - | - |
| 1777627103 | 15° C | 45% | 1010.3 hPa | 0 mm | - | - | - |
| 1777626506 | 15° C | 45% | 1010.4 hPa | 0 mm | - | - | - |
| 1777625905 | 15° C | 47% | 1010.3 hPa | 0 mm | - | - | - |
| 1777625305 | 15° C | 46% | 1010.4 hPa | 0 mm | - | - | - |
| 1777624706 | 15° C | 47% | 1010.3 hPa | 0 mm | - | - | - |
| 1777624104 | 15° C | 48% | 1010.2 hPa | 0 mm | - | - | - |
| 1777623504 | 15° C | 49% | 1010.2 hPa | 0 mm | - | - | - |
| 1777622906 | 14.44° C | 48% | 1010.1 hPa | 0 mm | - | - | - |
| 1777622305 | 14.44° C | 50% | 1010.2 hPa | 0 mm | - | - | - |
| 1777621705 | 13.89° C | 51% | 1010.1 hPa | 0 mm | - | - | - |
* Rain latest hour (hover to see other rain measurements)
** Current wind speed in m/s (hover to see current wind gust speed)